Погода в Улан Эрге

Россия / Республика Калмыкия     46°18′30″N   44°51′20″E
темп.,
°C
ветер,
м/с
пор.,
м/с
влажн.,
%
обл.,
%
осадки,
мм/ч
давл.,
гПа
погр.,
м
11 мая, вт
вт1100:00+8юз7137498 0.0 1016931
03:00+7ю61173100 0.0 1017379
06:00+8ююз61167100 0.0 1017732
09:00+12ю795298 0.0 10181141
12:00+17ююв81036100 0.0 10182305
15:00+17юв9103385 0.0 10182524
18:00+16юв5947100 0.0 1018640
21:00+13вюв4105146 0.0 1018229
12 мая, ср
ср1200:00+11вюв346988 0.0 101867
03:00+9всв22775 0.0 101816
06:00+11св24680 0.0 1018122
09:00+16всв44460 0.0 1018693
12:00+20всв45420 0.0 10171364
15:00+22в664698 0.0 10161945
18:00+19ююв1161100 0.0 101623
21:00+18юв11601 0.0 101511
13 мая, чт
чт1300:00+15вюв12680 0.0 101411
03:00+14ююв11795 0.0 101411
06:00+15ююв23680 0.0 101586
09:00+20вюв22520 0.0 1015537
12:00+24вюв44430 0.0 1015982
15:00+26вюв44380 0.0 10151153
18:00+25вюв35440 0.0 1014140
21:00+20в22505 0.0 101411
14 мая, пт
пт1400:00+17юв34641 0.0 101454
03:00+15вюв36751 0.0 1015104
06:00+17вюв277655 0.0 1015180
09:00+24вюв79455 0.0 1014602
12:00+30юв1013280 0.0 10131464
15:00+31юв1115250 0.0 10131739
18:00+26юв913370 0.0 1013656
21:00+21вюв817350 0.0 1014493
15 мая, сб
сб1500:00+18вюв412390 0.0 1014238
03:00+17вюв514460 0.0 1014243
06:00+18вюв515470 0.0 1014341
09:00+26юв812305 0.0 1014649
12:00+31юв912175 0.0 10131790
15:00+31юв1011160 0.0 10122094
18:00+27юв813240 0.0 1013463
21:00+21юв614375 0.0 1014316